This demonstration page uses our WeatherBlox Daily Observations layout. Learn more.

41.55636, -103.73856

Hourly Observations for August 16, 2015

Temp ( °F °C ) Dew Point ( °F °C ) Humidity (%) Winds ( mph kmh ) Pressure ( in mb ) Visibility ( mi km ) Precip ( " mm )
12:53 am 00:53 Mostly Cloudy 71 21.7 61 16.1 71 71 ESE 7 11 29.87 1012 10 16.0934 0 0
1:53 am 01:53 Clear 70 21.1 61 16.1 73 73 NW 8 13 29.85 1011 10 16.0934 0 0
2:53 am 02:53 Mostly Clear 71 21.7 60 15.6 68 68 NNE 9 15 29.83 1010 10 16.0934 0 0
3:53 am 03:53 Mostly Clear 68 20 60 15.6 76 76 WSW 3 6 29.88 1012 10 16.0934 0 0
4:53 am 04:53 Mostly Clear 67 19.4 61 16.1 81 81 N 3 6 29.92 1013 10 16.0934 0 0
5:53 am 05:53 Clear 65 18.3 61 16.1 87 87 N 6 9 29.92 1013 10 16.0934 0 0
6:53 am 06:53 Sunny 69 20.6 56 13.3 63 63 NE 15 24 29.93 1014 10 16.0934 0 0
7:53 am 07:53 Sunny 70 21.1 55 12.8 59 59 NE 17 28 29.98 1015 10 16.0934 0 0
8:53 am 08:53 Sunny 72 22.2 50 10 46 46 NE 21 33 30.01 1016 8 12.87472 0 0
9:53 am 09:53 Sunny 74 23.3 52 11.1 46 46 ENE 15 24 30.01 1016 8 12.87472 0 0
10:53 am 10:53 Sunny 72 22.2 52 11.1 50 50 ENE 15 24 30.02 1017 9 14.48406 0 0
11:53 am 11:53 Sunny 77 25 52 11.1 42 42 NNE 15 24 30.02 1017 8 12.87472 0 0
12:53 pm 12:53 Sunny 80 26.7 53 11.7 39 39 ENE 12 19 29.99 1016 9 14.48406 0 0
1:53 pm 13:53 Sunny 79 26.1 53 11.7 41 41 E 13 20 29.99 1016 9 14.48406 0 0
2:53 pm 14:53 Sunny 78 25.6 53 11.7 42 42 Calm 30 1016 9 14.48406 0 0
3:53 pm 15:53 Sunny 79 26.1 54 12.2 42 42 E 6 9 29.98 1015 9 14.48406 0 0
4:53 pm 16:53 Sunny 80 26.7 55 12.8 42 42 ESE 13 20 29.91 1013 9 14.48406 0 0
5:53 pm 17:53 Sunny 78 25.6 55 12.8 45 45 ESE 12 19 29.92 1013 9 14.48406 0 0
6:53 pm 18:53 Sunny 74 23.3 59 15 60 60 E 7 11 29.94 1014 9 14.48406 0 0
7:53 pm 19:53 Mostly Sunny 72 22.2 58 14.4 61 61 NW 5 7 30.02 1017 10 16.0934 0 0
8:53 pm 20:53 Mostly Cloudy with Light Rain 69 20.6 62 16.7 78 78 Calm 30.04 1017 9 14.48406 0 0.0254
9:53 pm 21:53 Clear 67 19.4 60 15.6 79 79 E 10 17 29.98 1015 9 14.48406 0 0.0254
10:53 pm 22:53 Mostly Cloudy 66 18.9 59 15 78 78 E 9 15 29.98 1015 9 14.48406 0 0
11:53 pm 23:53 Partly Cloudy 64 17.8 58 14.4 81 81 E 7 11 30 1016 10 16.0934 0 0

Powered by AerisWeather